Weather History for EGNH - March, 2014

Change the Weather History Date:

Tuesday, March 25, 2014

  Actual Average Record
Temperature  
Mean Temperature 44 °F -  
Max Temperature 47 °F 51 °F 66 °F (2012)
Min Temperature 42 °F 40 °F 27 °F (2015)
Degree Days  
Heating Degree Days 20    
Moisture  
Dew Point 43 °F    
Average Humidity 92    
Maximum Humidity 100    
Minimum Humidity 71    
Precipitation  
Precipitation 0.08 in - - ()
Sea Level Pressure  
Sea Level Pressure 29.85 in    
Wind  
Wind Speed 9 mph ()    
Max Wind Speed 22 mph    
Max Gust Speed -    
Visibility 4.6 miles    
Events Rain    
Averages and records for this station are not official NWS values.
T = Trace of Precipitation, MM = Missing Value Source: Averaged Metar Reports

Daily Weather History Graph

Daily Weather History Graph

Search for Another Location

Airport or City:

Trip Planner

Search our weather history database for the weather conditions in past years. The results will help you decide how hot, cold, wet, or windy it might be!

Date:

Astronomy

Mar. 25, 2014 Rise Set
Actual Time 6:02 AM GMT 6:34 PM GMT
Civil Twilight 5:27 AM GMT 7:10 PM GMT
Nautical Twilight 4:45 AM GMT 7:52 PM GMT
Astronomical Twilight 4:00 AM GMT 8:37 PM GMT
Moon 2:58 AM GMT (3/25) 12:05 PM GMT (3/25)
Length of Visible Light 13h 42m
Length of Day
12h 31m
Waning Crescent, 34% of the Moon is Illuminated
Mar 25
Waning Crescent
Mar 30
New
Apr 7
First Quarter
Apr 15
Full
Apr 22
Last Quarter

Hourly Weather History & Observations

Time (GMT) Temp. Windchill Dew Point Humidity Pressure Visibility Wind Dir Wind Speed Gust Speed Precip Events Conditions
12:00 AM 44 °F - 38 °F 71%  in - SSE 21.9 mph - -  
1:00 AM 44 °F - 39 °F 75%  in - SSE 20.7 mph - -  
2:00 AM 44 °F - 39 °F 77%  in - SSE 21.9 mph - -  
3:00 AM 44 °F - 40 °F 81%  in - SSE 17.3 mph - -  
4:00 AM 43 °F - 41 °F 90%  in - SSE 13.8 mph - -  
5:00 AM 43 °F - 41 °F 92%  in - SSE 10.4 mph - -  
6:00 AM 43 °F - 42 °F 92%  in - SSE 8.1 mph - -  
6:20 AM 42.8 °F 37.5 °F 41.0 °F 93% 29.68 in 3.7 mi SE 9.2 mph - N/A   Mostly Cloudy
6:50 AM 42.8 °F 38.6 °F 42.8 °F 100% 29.68 in 3.7 mi ESE 6.9 mph - N/A   Mostly Cloudy
7:00 AM 43 °F - 42 °F 93%  in - ESE 6.9 mph - -  
7:20 AM 42.8 °F 38.6 °F 42.8 °F 100% 29.71 in 3.7 mi ESE 6.9 mph - N/A   Mostly Cloudy
7:50 AM 44.6 °F 41.4 °F 42.8 °F 93% 29.71 in 3.7 mi ESE 5.8 mph - N/A   Mostly Cloudy
8:00 AM 43 °F - 42 °F 96%  in - ESE 5.8 mph - -  
8:20 AM 44.6 °F 41.4 °F 42.8 °F 93% 29.71 in 3.7 mi ESE 5.8 mph - N/A Rain Light Rain
8:50 AM 44.6 °F 40.7 °F 42.8 °F 93% 29.74 in 1.9 mi East 6.9 mph - N/A   Overcast
9:00 AM 44 °F - 43 °F 93%  in - East 6.9 mph - -  
9:20 AM 44.6 °F 40.7 °F 42.8 °F 93% 29.74 in 1.6 mi NE 6.9 mph - N/A   Drizzle
9:50 AM 44.6 °F 41.4 °F 42.8 °F 93% 29.77 in 3.1 mi East 5.8 mph - N/A   Drizzle
10:00 AM 44 °F - 43 °F 96%  in - East 5.8 mph - -  
10:20 AM 44.6 °F 42.2 °F 44.6 °F 100% 29.77 in 5.0 mi East 4.6 mph - N/A   Overcast
10:50 AM 44.6 °F 42.2 °F 44.6 °F 100% 29.77 in 5.0 mi ENE 4.6 mph - N/A   Overcast
11:00 AM 45 °F - 44 °F 95%  in - East 5.8 mph - -  
11:20 AM 44.6 °F 42.2 °F 44.6 °F 100% 29.80 in 5.0 mi ENE 4.6 mph - N/A Rain Light Rain
11:50 AM 46.4 °F 44.3 °F 44.6 °F 93% 29.80 in 5.0 mi NE 4.6 mph - N/A Rain Light Rain
12:00 PM 45 °F - 44 °F 92%  in - ENE 5.8 mph - -  
12:20 PM 46.4 °F 45.2 °F 44.6 °F 93% 29.80 in 5.6 mi Variable 3.5 mph - N/A Rain Light Rain
12:50 PM 46.4 °F 43.5 °F 44.6 °F 93% 29.83 in 5.6 mi ENE 5.8 mph - N/A Rain Light Rain
1:00 PM 47 °F - 45 °F 90%  in - ENE 5.8 mph - -  
1:20 PM 46.4 °F 42.9 °F 44.6 °F 93% 29.83 in 5.6 mi ENE 6.9 mph - N/A Rain Light Rain
1:50 PM 46.4 °F 43.5 °F 44.6 °F 93% 29.86 in 4.3 mi NNE 5.8 mph - N/A Rain Light Rain
2:00 PM 46 °F - 44 °F 89%  in - NE 6.9 mph - -  
2:20 PM 46.4 °F 43.5 °F 44.6 °F 93% 29.86 in 5.6 mi NNE 5.8 mph - N/A Rain Light Rain
2:50 PM 46.4 °F 44.3 °F 44.6 °F 93% 29.86 in 6.2 mi North 4.6 mph - N/A Rain Light Rain
3:00 PM 47 °F - 44 °F 86%  in - North 5.8 mph - -  
3:20 PM 46.4 °F 43.5 °F 44.6 °F 93% 29.89 in 6.2 mi NNE 5.8 mph - N/A Rain Light Rain
3:50 PM 46.4 °F 43.5 °F 44.6 °F 93% 29.89 in 6.2 mi North 5.8 mph - N/A Rain Light Rain Showers
4:00 PM 46 °F - 44 °F 88%  in - North 4.6 mph - -  
4:20 PM 46.4 °F 42.9 °F 44.6 °F 93% 29.92 in 3.7 mi NNW 6.9 mph - N/A Rain Rain
4:50 PM 46.4 °F 44.3 °F 44.6 °F 93% 29.92 in 5.6 mi NNW 4.6 mph - N/A Rain Light Rain
5:00 PM 45 °F - 44 °F 94%  in - NNW 5.8 mph - -  
5:20 PM 46.4 °F 43.5 °F 44.6 °F 93% 29.95 in 5.6 mi NNW 5.8 mph - N/A   Mostly Cloudy
5:50 PM 46.4 °F 43.5 °F 44.6 °F 93% 29.98 in 5.6 mi North 5.8 mph - N/A   Mostly Cloudy
6:00 PM 46 °F - 44 °F 89%  in - NNE 5.8 mph - -  
6:20 PM 46.4 °F 44.3 °F 44.6 °F 93% 29.98 in 5.6 mi NE 4.6 mph - N/A   Mostly Cloudy
6:50 PM 44.6 °F 43.1 °F 44.6 °F 100% 30.01 in 5.6 mi NE 3.5 mph - N/A   Mostly Cloudy
7:00 PM 45 °F - 44 °F 92%  in - ENE 4.6 mph - -  
7:20 PM 44.6 °F 42.2 °F 42.8 °F 93% 30.01 in 3.7 mi ENE 4.6 mph - N/A Rain Light Rain
7:50 PM 44.6 °F 42.2 °F 42.8 °F 93% 30.04 in 3.7 mi ENE 4.6 mph - N/A Rain Light Rain
8:00 PM 44 °F - 42 °F 92%  in - East 4.6 mph - -  
8:20 PM 44.6 °F 42.2 °F 42.8 °F 93% 30.04 in 3.7 mi ENE 4.6 mph - N/A Rain Light Rain
8:50 PM 44.6 °F 43.1 °F 42.8 °F 93% 30.06 in 3.7 mi ENE 3.5 mph - N/A Rain Light Rain
9:00 PM 43 °F - 42 °F 96%  in - East 4.6 mph - -  
10:00 PM 43 °F - 42 °F 94%  in - NE 3.5 mph - -  
11:00 PM 43 °F - 41 °F 92%  in - North 3.5 mph - -